Location: Colle Santa Colomba
(42.0333°N, 12.5667°E)
Time: 21:41:25
(UTC+00:00)

SL-8 R/B - Pass Details

Date: 25 October 2021
Orbit: 656 x 667 km, 48.4° (Epoch: 04 December)

Event Time Altitude Azimuth Distance (km) Brightness Sun altitude
Rises 16:35:15 0° 266° (W) 2,977 9.5 -4.8°
Reaches altitude 10° 16:37:41 10° 273° (W) 2,068 7.9 -5.3°
Maximum altitude 16:42:16 45° 346° (NNW) 893 4.4 -6.1°
Drops below altitude 10° 16:46:53 10° 60° (ENE) 2,078 5.7 -7.0°
Enters shadow 16:47:27 - 62° (ENE) 2,288 5.9 -7.1°
